Location: Riverside Cemetery
(38.3047°N, 99.7773°W)
Time: 02:29:53
(UTC+00:00)

Cosmos 1975 Rocket - Pass Details

Date: 19 September 2020
Orbit: 603 x 634 km, 82.5° (Epoch: 22 October)

Event Time Altitude Azimuth Distance (km) Brightness Sun altitude
Rises 01:36:17 0° 355° (N) 2,871 6.7 -11.5°
Reaches altitude 10° 01:38:31 10° 357° (N) 1,960 5.8 -11.9°
Maximum altitude 01:42:50 71° 82° (E) 641 2.9 -12.8°
Drops below altitude 10° 01:47:07 10° 167° (SSE) 1,940 5.3 -13.6°
Sets 01:49:19 0° 169° (S) 2,839 6.2 -14.0°
